Wetbulb
73.40 71.61 71.11 69.75 71.96 72.69 71.87 74.75 75.56 75.99 75.50 71.02 69.97 69.20 70.36 73.81 75.99 75.83 75.34 74.97 74.14 73.59 73.41 72.76 72.59 73.43 70.83 69.86 69.93 71.60 71.16 71.99 69.00 71.91 75.32 72.88 73.43 75.67 76.19 76.73 76.36 76.58 76.03
73.92 73.33 71.88 71.17 71.52 69.94 70.68 71.86 73.09 73.34 73.26 74.29 70.82 68.00 66.87 69.00 74.88 74.56 73.56 72.12 72.35 71.32 70.56 70.49 69.92 68.98 70.81 71.53 70.53 72.14 71.99 72.24 69.95 67.92 71.98 73.50 73.46 77.00 76.14 75.93 75.39 75.20 75.41
71.29 70.49 69.59 68.71 68.57 68.16 69.76 70.34 71.49 72.61 70.55 71.01 70.05 66.17 65.52 66.40 72.75 73.73 72.64 71.08 69.83 68.82 68.92 68.38 67.81 68.30 68.10 68.51 69.54 68.95 68.95 69.26 70.93 70.41 69.81 71.58 72.70 75.34 76.18 76.09 75.20 75.19 75.69
70.80 70.39 69.19 68.82 68.43 69.04 70.62 71.76 72.73 72.12 70.21 69.67 70.06 70.96 71.08 72.35 71.90 70.99 70.37 69.98 69.54 68.99 68.92 69.22 69.18 68.79 68.55 68.37 67.36 68.73 69.65 69.38 69.53 68.58 68.97 68.73 69.63 72.69 74.83 73.78 74.35 74.23 73.56
71.18 71.44 71.66 71.76 71.28 71.73 71.27 70.41 71.21 69.89 69.57 69.69 70.41 70.67 70.55 69.76 69.08 71.15 70.99 70.23 69.74 69.64 69.98 69.84 69.37 68.95 66.80 67.02 66.56 67.75 69.43 68.26 67.08 66.58 66.08 67.14 67.02 67.34 69.51 71.84 73.69 74.92 74.64
71.12 69.21 70.70 70.87 70.64 69.97 70.06 70.40 68.64 68.60 69.47 70.21 71.05 69.78 70.27 69.84 63.62 63.69 64.38 68.00 68.56 68.56 67.78 68.52 68.93 68.11 67.50 66.05 65.95 66.36 67.20 67.41 68.70 67.11 66.35 65.70 69.28 68.41 68.62 68.17 69.05 71.71 71.00
68.45 68.75 69.47 69.26 68.70 68.05 68.14 68.14 67.19 67.20 66.94 67.30 68.14 68.59 68.81 68.90 62.14 61.49 61.25 64.32 65.68 66.26 66.47 66.85 66.59 67.14 66.94 66.88 65.49 64.91 65.60 65.53 65.88 68.48 67.27 68.21 69.17 70.26 70.64 70.40 71.13 69.82 70.19
67.63 66.88 66.42 66.69 65.79 65.38 65.36 64.40 64.21 64.01 63.45 63.36 63.58 63.93 64.41 64.91 60.46 59.29 58.80 61.16 62.50 63.98 64.82 65.22 64.89 64.83 64.92 65.11 65.39 65.19 66.33 67.83 68.43 68.94 69.95 69.71 70.64 71.08 71.87 70.75 71.17 71.77 72.05
63.82 63.24 62.65 62.51 61.51 61.83 60.76 60.30 60.40 59.91 59.79 59.83 59.99 60.30 60.40 60.80 57.86 57.21 58.08 59.08 59.54 61.35 62.84 63.81 63.88 63.70 61.92 60.86 63.88 63.67 64.46 65.65 65.37 62.98 63.40 63.93 64.35 63.96 66.02 69.05 66.39 67.03 66.76
61.17 60.10 60.63 60.75 59.54 58.85 58.75 58.75 59.03 58.87 58.69 58.39 58.76 59.51 58.25 59.03 56.99 56.10 56.34 57.27 56.59 56.55 59.16 60.85 59.82 60.59 57.98 57.44 62.39 61.87 60.82 63.88 65.83 67.13 68.17 66.66 65.62 68.51 64.09 68.69 67.89 65.27 64.84
59.95 59.24 59.14 58.72 58.16 58.34 58.36 58.29 58.04 57.92 57.72 57.74 57.69 58.48 58.98 58.43 58.40 54.80 54.48 55.62 55.20 54.68 55.08 56.15 57.61 56.70 53.62 52.68 52.84 56.32 58.02 60.53 62.94 65.28 66.42 67.02 68.15 69.15 69.60 69.79 70.45 68.02 65.87
58.72 58.17 57.76 57.44 56.54 56.61 57.33 57.37 57.21 56.78 56.34 55.98 56.15 55.80 56.54 58.18 55.34 54.19 52.71 52.38 53.40 53.31 54.38 55.89 56.81 52.21 50.80 51.16 52.47 53.78 54.00 55.52 60.69 63.71 64.76 65.14 65.58 66.38 67.74 67.63 69.71 71.43 71.11
57.60 57.64 57.40 56.55 56.35 56.68 56.26 56.08 54.65 55.76 54.11 53.84 52.67 52.76 53.37 54.84 55.51 52.78 52.02 52.60 52.63 52.37 53.03 52.38 51.49 50.55 50.98 52.17 52.05 52.74 53.97 57.72 57.42 61.95 62.50 64.23 65.55 67.02 70.52 70.07 70.40 71.54 71.56
57.35 57.02 56.95 56.16 55.75 56.14 55.58 55.02 54.02 53.40 52.69 52.29 51.45 50.99 51.62 52.89 53.30 53.74 53.15 52.39 51.04 51.80 52.18 52.14 49.73 49.07 49.16 51.04 52.90 54.52 56.40 56.66 58.67 60.01 62.20 63.65 66.11 64.89 65.54 67.05 66.44 67.80 67.66
55.64 55.48 55.68 55.60 55.97 55.90 56.41 54.89 53.78 54.73 51.92 51.12 51.23 51.00 50.45 50.02 51.28 47.83 46.32 47.56 48.15 48.62 47.17 48.25 48.76 49.17 48.84 51.04 53.00 54.06 56.39 56.48 60.60 60.05 60.05 59.58 61.65 64.24 64.25 64.00 63.65 64.88 64.52
55.09 55.02 54.63 54.39 54.83 54.92 54.80 54.56 51.26 47.71 46.82 45.01 44.25 46.46 51.34 47.59 45.33 44.04 42.47 42.29 42.74 43.61 45.67 46.11 47.32 46.82 46.86 47.96 48.96 51.63 51.22 54.03 56.05 59.48 59.83 58.15 58.26 58.75 61.86 64.23 63.50 63.07 62.46
55.30 55.59 55.02 53.88 54.74 54.31 54.17 53.34 52.28 52.88 46.53 45.27 43.39 43.49 43.26 44.01 43.18 41.93 41.10 41.45 42.08 42.84 44.22 45.66 46.88 47.66 47.60 47.41 47.92 49.29 49.82 50.62 54.58 54.43 57.84 59.78 57.39 57.40 58.31 59.24 60.78 62.02 60.94
56.49 52.30 54.97 54.86 54.69 54.15 53.79 53.23 53.16 52.26 51.37 52.06 49.75 46.21 45.54 43.01 42.06 41.27 41.41 42.08 46.07 46.23 45.31 45.59 46.69 46.89 47.13 47.17 47.44 48.47 49.43 49.48 50.16 52.24 52.72 55.76 58.19 57.83 56.93 58.41 59.46 60.96 60.52
56.01 55.18 54.58 54.13 54.03 53.12 53.46 53.67 53.00 52.59 51.94 52.11 51.90 49.19 48.93 44.63 42.96 42.48 42.25 44.74 44.70 44.42 44.26 43.61 44.82 45.17 45.61 46.86 47.65 47.52 47.73 48.04 48.99 50.27 52.83 52.84 56.77 58.48 59.25 59.70 60.16 54.61 57.00
55.53 54.43 52.64 53.62 53.36 53.42 53.16 52.44 52.06 51.89 51.61 48.49 48.20 47.76 47.54 46.84 46.07 46.08 46.59 46.25 45.81 45.11 44.58 43.67 44.02 44.52 44.64 45.86 46.57 47.31 47.19 46.59 46.94 49.80 52.62 54.28 55.89 57.72 57.79 58.96 59.51 59.82 60.45
55.60 54.96 54.49 53.72 53.25 52.77 52.18 51.90 51.78 49.49 47.03 46.46 46.01 46.67 44.45 45.00 44.39 44.49 44.62 44.99 44.86 44.83 44.78 44.08 43.54 43.22 43.71 44.48 45.62 45.57 45.31 46.63 47.23 48.12 49.29 52.84 57.17 57.46 58.46 59.27 59.23 60.73 60.84
55.39 54.11 53.50 52.65 52.22 51.95 52.14 51.29 48.06 46.78 46.31 45.30 45.42 45.97 43.71 44.92 44.64 44.17 44.02 43.97 44.27 44.36 44.87 44.87 43.88 43.84 43.54 44.27 44.93 46.00 46.27 46.69 48.29 49.67 50.89 52.19 53.97 55.79 57.80 57.88 60.49 60.60 61.20
54.04 53.30 52.26 51.81 52.70 50.86 49.06 47.73 46.64 46.06 45.56 45.49 45.39 44.94 44.90 44.61 44.44 44.29 44.23 44.38 44.56 44.56 44.97 44.52 44.44 44.20 44.09 45.08 46.21 46.92 46.78 46.94 50.00 50.03 50.81 51.33 53.08 53.11 53.68 54.99 59.03 60.71 60.77
53.10 52.22 51.62 52.41 51.73 49.21 48.23 47.39 45.88 44.28 45.14 45.19 45.41 45.22 45.24 45.02 44.77 44.77 45.06 45.49 45.57 45.29 45.26 44.65 44.13 43.67 43.83 44.38 45.06 46.82 47.77 49.79 49.99 51.28 51.04 51.54 50.95 50.59 51.90 53.03 54.82 59.66 61.42
52.51 51.74 52.12 52.09 50.37 48.85 47.44 45.78 46.67 48.87 48.44 47.20 45.66 45.54 46.02 46.07 45.93 45.89 46.09 46.48 46.60 46.46 46.03 45.72 45.24 44.64 44.46 44.56 44.27 45.00 44.44 39.59 46.35 44.66 48.76 48.59 48.37 49.02 49.94 51.32 53.00 58.50 60.49
51.98 52.03 52.44 52.06 50.42 48.77 48.99 49.50 49.50 49.20 48.42 48.44 46.44 45.48 45.54 45.59 45.64 45.92 46.33 46.30 46.10 46.14 46.39 46.42 46.26 45.65 44.56 45.11 44.51 41.94 37.12 35.83 41.52 35.42 45.02 46.65 48.30 48.64 49.45 50.94 53.05 55.70 58.99
MSLP
1011.57 1012.36 1012.69 1013.11 1012.80 1012.97 1013.45 1013.71 1013.37 1012.86 1013.10 1013.34 1013.82 1014.48 1014.06 1014.47 1014.28 1014.19 1014.17 1013.94 1013.81 1013.96 1014.07 1013.94 1013.65 1013.63 1013.33 1012.95 1012.58 1013.59 1013.66 1013.44 1013.07 1012.23 1012.11 1011.72 1011.47 1011.04 1010.57 1010.38 1010.40 1010.41 1010.32
1011.97 1012.42 1012.83 1013.37 1013.48 1013.63 1013.50 1014.16 1013.99 1013.70 1013.60 1013.34 1013.52 1013.05 1013.39 1014.86 1014.94 1014.29 1014.02 1013.71 1013.80 1013.78 1013.83 1013.87 1013.72 1013.24 1013.16 1012.84 1012.56 1012.48 1012.59 1013.17 1013.17 1012.42 1012.02 1011.61 1011.41 1010.68 1010.44 1010.33 1009.89 1009.42 1009.34
1012.17 1012.48 1013.08 1013.33 1012.93 1013.09 1013.29 1013.85 1014.04 1013.81 1013.93 1013.87 1013.67 1013.35 1013.35 1015.32 1015.12 1014.33 1014.20 1013.91 1013.82 1013.86 1013.96 1013.91 1013.71 1013.41 1013.08 1012.81 1012.84 1012.40 1011.81 1011.40 1011.46 1011.82 1011.44 1011.03 1010.78 1010.92 1010.50 1009.89 1009.85 1009.32 1009.06
1012.42 1012.70 1012.89 1012.72 1013.24 1012.89 1013.54 1013.79 1013.74 1013.66 1013.77 1013.84 1013.77 1013.33 1014.40 1014.71 1014.59 1014.16 1014.15 1014.05 1013.99 1013.82 1013.92 1013.77 1013.61 1013.30 1012.97 1012.89 1012.69 1012.35 1011.74 1011.47 1011.07 1010.71 1010.77 1010.26 1009.88 1009.82 1010.47 1010.30 1009.27 1008.65 1008.51
1012.44 1012.58 1012.73 1012.69 1012.99 1013.28 1013.71 1013.75 1013.44 1013.63 1013.95 1013.53 1013.43 1013.21 1013.90 1014.34 1014.28 1014.02 1013.96 1013.81 1013.83 1013.79 1013.74 1013.39 1012.93 1012.66 1012.81 1012.90 1012.69 1012.08 1011.86 1011.34 1010.49 1009.79 1009.39 1009.31 1009.19 1008.86 1008.85 1009.38 1009.86 1009.52 1008.70
1012.72 1013.16 1012.99 1013.27 1013.53 1013.78 1013.99 1013.60 1014.07 1014.10 1013.96 1013.78 1013.72 1013.54 1013.66 1013.62 1013.95 1014.27 1014.45 1014.00 1013.82 1013.82 1013.29 1012.83 1012.49 1012.34 1012.01 1011.71 1011.79 1011.78 1011.94 1011.60 1010.85 1010.26 1009.40 1008.84 1008.49 1009.23 1009.28 1008.99 1008.71 1009.13 1008.71
1013.42 1013.62 1013.58 1013.63 1013.92 1014.10 1013.99 1013.97 1014.10 1014.16 1014.69 1014.54 1014.48 1014.34 1014.18 1014.29 1014.66 1014.91 1015.17 1014.52 1013.88 1013.30 1012.87 1012.41 1012.06 1011.32 1011.07 1010.95 1010.93 1010.74 1010.72 1010.76 1010.60 1010.27 1009.70 1009.37 1008.91 1008.60 1008.42 1008.63 1008.75 1008.29 1007.98
1013.91 1014.09 1014.23 1014.19 1014.27 1014.33 1014.22 1014.38 1014.60 1014.61 1014.63 1014.78 1014.76 1014.80 1014.63 1014.49 1014.75 1015.00 1015.09 1014.39 1013.30 1012.63 1012.12 1011.89 1011.51 1010.98 1011.01 1010.76 1010.60 1009.92 1009.40 1009.04 1009.08 1008.83 1008.42 1008.24 1008.38 1008.53 1008.57 1008.18 1007.78 1008.08 1008.18
1014.54 1014.68 1014.89 1014.97 1014.86 1014.86 1014.80 1014.73 1014.82 1014.71 1014.61 1014.61 1014.47 1014.55 1014.43 1014.30 1014.49 1014.56 1014.43 1013.33 1012.32 1011.87 1011.62 1010.98 1010.85 1010.78 1010.83 1010.95 1010.61 1009.77 1009.21 1008.61 1007.98 1007.95 1007.74 1007.87 1007.62 1007.75 1007.61 1007.93 1007.23 1006.58 1006.67
1014.82 1015.11 1015.22 1015.22 1015.18 1015.11 1015.15 1015.11 1015.09 1014.86 1014.46 1014.59 1014.16 1014.16 1013.98 1013.91 1013.92 1014.17 1014.44 1013.67 1012.48 1011.33 1010.82 1010.53 1010.47 1010.69 1010.75 1010.75 1010.54 1010.19 1009.42 1008.21 1007.39 1007.08 1006.35 1006.30 1006.68 1006.75 1006.75 1007.05 1006.96 1006.12 1005.36
1015.24 1015.29 1015.34 1015.30 1015.15 1015.37 1015.35 1015.34 1014.95 1014.70 1014.54 1014.20 1013.92 1013.68 1013.30 1012.98 1013.15 1013.30 1013.54 1013.30 1012.21 1011.39 1010.75 1009.81 1009.95 1010.30 1010.17 1010.57 1010.97 1010.02 1009.34 1009.18 1008.20 1006.85 1005.91 1004.99 1005.02 1004.71 1005.28 1005.16 1005.57 1005.52 1004.65
1015.47 1015.55 1015.76 1015.84 1015.64 1015.68 1015.70 1015.45 1015.11 1015.23 1014.47 1013.96 1013.51 1012.91 1012.24 1012.38 1012.36 1012.42 1012.55 1012.76 1012.80 1012.21 1011.22 1010.52 1009.89 1010.71 1010.79 1010.09 1009.65 1009.30 1009.17 1008.78 1007.88 1006.39 1005.24 1004.28 1003.57 1003.33 1003.22 1003.56 1003.61 1004.01 1003.93
1015.70 1015.80 1015.90 1015.96 1015.90 1015.83 1015.58 1015.27 1014.90 1014.42 1013.87 1013.69 1013.15 1012.82 1012.20 1012.09 1012.24 1012.41 1012.42 1012.06 1012.34 1012.38 1011.56 1010.79 1010.78 1010.29 1009.82 1009.23 1008.69 1008.68 1008.37 1007.37 1006.90 1005.54 1004.54 1003.65 1002.93 1002.62 1002.61 1003.02 1003.19 1003.43 1003.63
1015.87 1015.88 1015.76 1015.65 1015.76 1015.52 1015.25 1014.64 1014.38 1014.05 1013.95 1013.67 1013.38 1013.15 1012.45 1011.99 1011.89 1011.84 1011.70 1011.88 1012.21 1011.62 1010.47 1009.78 1010.43 1010.55 1009.76 1008.79 1008.12 1007.24 1006.18 1005.61 1005.27 1004.98 1004.20 1003.23 1003.11 1002.80 1002.29 1002.20 1002.12 1002.49 1002.77
1015.71 1015.60 1015.46 1015.09 1014.99 1014.98 1014.64 1014.49 1014.45 1014.32 1014.45 1014.65 1014.15 1013.61 1013.03 1012.56 1012.45 1013.02 1013.16 1012.87 1012.21 1011.51 1011.51 1010.88 1009.42 1008.51 1007.87 1007.12 1006.39 1005.57 1004.67 1004.50 1004.55 1004.49 1004.11 1003.57 1003.24 1002.81 1002.53 1002.27 1002.09 1001.85 1001.30
1015.60 1015.13 1014.84 1014.97 1014.57 1014.28 1014.04 1013.75 1013.73 1013.77 1013.77 1013.86 1013.69 1013.47 1012.65 1012.59 1012.60 1012.47 1012.11 1011.72 1011.57 1011.66 1011.26 1009.89 1008.36 1007.62 1007.15 1006.75 1006.15 1005.28 1005.03 1004.71 1004.27 1003.84 1003.46 1003.29 1003.28 1003.36 1002.60 1002.15 1001.36 1001.37 1001.21
1015.70 1015.38 1014.96 1014.68 1014.16 1013.95 1013.67 1013.39 1012.82 1012.54 1012.63 1012.48 1012.38 1012.29 1012.43 1012.17 1012.01 1011.80 1011.59 1011.46 1011.21 1011.10 1010.22 1008.88 1007.42 1006.48 1006.05 1005.94 1005.82 1005.37 1004.77 1004.54 1003.94 1003.49 1003.19 1002.51 1002.73 1002.74 1002.52 1002.25 1001.14 1001.02 1000.83
1015.50 1015.23 1014.85 1014.25 1013.73 1013.46 1013.19 1012.96 1012.72 1012.14 1011.60 1011.40 1011.26 1011.56 1011.48 1011.36 1011.30 1011.15 1010.90 1010.62 1010.03 1009.29 1008.92 1008.03 1007.00 1006.38 1005.96 1005.63 1005.43 1005.06 1004.63 1004.25 1003.76 1003.16 1002.71 1002.55 1002.09 1001.68 1001.72 1001.21 1000.78 1000.28 1000.31
1015.05 1014.46 1014.20 1013.85 1013.45 1013.22 1012.99 1012.42 1012.08 1011.77 1011.50 1011.05 1011.02 1011.31 1011.07 1011.24 1010.83 1010.38 1009.95 1009.73 1008.90 1008.28 1007.97 1007.48 1006.97 1006.31 1005.79 1005.29 1004.93 1004.58 1004.39 1003.96 1003.59 1003.04 1002.28 1001.85 1001.57 1000.91 1000.14 1000.10 999.72 999.62 999.46
1014.09 1014.26 1014.39 1013.74 1013.13 1012.67 1012.30 1012.13 1011.92 1011.68 1011.46 1011.96 1012.00 1011.76 1011.44 1011.09 1010.34 1009.56 1009.07 1008.64 1008.08 1007.47 1006.99 1006.63 1006.25 1005.80 1005.41 1004.89 1004.41 1004.12 1003.97 1003.71 1003.34 1002.61 1001.68 1000.71 1000.39 1000.24 999.66 999.31 999.15 998.39 998.29
1013.81 1013.50 1013.61 1013.12 1012.80 1012.62 1012.51 1012.25 1012.28 1012.44 1012.72 1012.65 1012.33 1011.88 1011.54 1011.19 1010.17 1009.31 1008.52 1007.84 1007.23 1006.59 1006.06 1005.71 1005.36 1004.92 1004.53 1004.02 1003.55 1003.38 1003.15 1002.66 1002.32 1001.94 1001.33 1000.74 1000.11 999.43 998.95 998.38 998.23 998.13 998.05
1013.64 1013.29 1013.21 1013.11 1013.02 1012.91 1013.00 1013.17 1013.40 1013.46 1013.34 1012.91 1012.23 1011.56 1011.03 1010.49 1009.57 1008.72 1007.89 1007.16 1006.51 1005.95 1005.33 1004.78 1004.24 1003.81 1003.58 1003.14 1002.83 1002.46 1002.13 1001.83 1001.53 1001.24 1000.86 1000.45 1000.00 999.41 998.77 998.55 997.92 997.27 997.02
1013.23 1013.24 1013.16 1013.18 1013.28 1013.53 1013.95 1013.97 1013.91 1013.73 1013.31 1012.68 1011.96 1011.13 1010.35 1009.60 1008.78 1007.90 1007.01 1006.15 1005.42 1004.77 1004.18 1003.69 1003.15 1002.63 1002.36 1002.07 1001.80 1001.49 1001.21 1000.99 1000.59 1000.64 1000.27 999.99 999.46 999.24 998.96 998.66 997.75 997.09 996.35
1013.12 1013.17 1013.21 1013.18 1013.42 1013.96 1013.91 1013.95 1013.74 1013.27 1012.78 1012.10 1011.35 1010.54 1009.69 1008.81 1007.89 1006.91 1005.98 1005.05 1004.22 1003.47 1002.86 1002.38 1001.94 1001.46 1001.15 1000.93 1000.73 1000.44 1000.20 1000.05 1000.11 999.90 999.76 999.49 999.31 999.25 999.05 998.56 998.00 996.91 996.22
1013.16 1013.31 1013.39 1013.26 1013.54 1013.72 1013.79 1013.71 1013.27 1012.51 1011.88 1011.35 1010.78 1009.98 1009.05 1007.99 1006.93 1005.92 1004.93 1003.98 1003.07 1002.21 1001.42 1000.88 1000.47 1000.15 999.92 999.73 999.61 999.49 999.24 999.16 999.39 999.39 999.54 999.50 999.32 999.09 998.88 998.45 998.02 997.00 996.45
1013.35 1013.48 1013.39 1013.27 1013.39 1013.64 1013.41 1013.08 1012.55 1011.91 1011.31 1010.68 1010.16 1009.55 1008.54 1007.38 1006.26 1005.01 1003.82 1002.78 1001.77 1000.79 999.98 999.41 998.84 998.55 998.46 998.40 998.34 998.39 998.38 998.51 998.68 998.82 999.16 999.11 998.76 998.53 998.37 998.09 997.57 997.14 996.38
Wind_Speed
2 5 3 1 3 5 3 6 8 6 6 6 7 5 5 7 7 5 5 4 5 5 7 8 7 7 8 9 7 4 7 8 8 10 10 9 9 11 10 9 8 9 9
3 3 3 3 6 4 5 9 7 4 5 3 1 5 9 10 11 8 7 6 6 7 8 8 9 7 9 9 9 9 9 6 5 10 11 9 10 11 10 8 8 9 9
3 5 5 3 4 2 6 7 8 9 4 2 6 4 1 16 14 8 8 7 7 6 8 8 9 9 9 10 11 12 12 10 9 8 10 9 8 8 11 10 9 9 10
5 5 4 6 4 7 2 3 5 4 7 3 1 10 9 14 10 9 7 7 8 8 9 9 10 10 10 11 11 13 13 12 12 11 10 12 9 9 7 9 10 10 9
1 5 6 5 4 1 3 4 7 5 4 3 4 3 5 7 6 7 8 8 10 11 12 11 12 10 8 10 11 12 14 14 12 12 12 11 10 10 9 7 8 9 11
1 3 4 5 4 4 5 7 8 6 6 6 2 1 5 7 9 8 7 9 11 13 13 14 13 13 15 16 18 18 16 15 16 14 13 13 9 9 11 11 8 9 10
5 4 5 5 5 5 7 8 9 8 5 5 4 4 5 8 7 6 8 11 13 13 14 14 15 14 13 16 16 14 17 21 21 17 18 15 15 11 11 10 11 12 11
5 5 5 5 6 6 7 7 7 6 6 5 5 6 7 8 2 5 10 13 13 15 15 16 16 16 16 15 16 17 17 16 16 14 17 18 17 14 13 11 12 12 10
5 5 5 5 4 6 7 8 8 8 7 6 6 8 8 9 6 8 10 12 13 14 13 13 14 16 16 13 16 17 18 17 13 16 18 18 16 10 8 11 13 10 12
6 5 5 6 6 7 7 7 6 6 7 8 9 9 10 11 8 4 7 10 13 11 13 12 9 13 12 8 11 13 14 16 16 18 16 17 17 17 16 16 14 14 14
4 5 6 7 6 8 7 7 8 9 9 9 10 10 11 9 10 2 5 10 11 12 13 12 12 1 2 5 10 12 13 14 19 17 16 14 14 15 15 16 16 15 15
5 5 5 5 5 5 6 7 8 7 8 9 10 11 9 11 7 7 4 8 13 13 14 12 13 11 13 16 15 19 18 16 13 14 14 14 13 13 11 9 10 15 14
3 3 3 3 4 5 7 7 8 7 8 9 10 11 11 11 11 8 9 8 11 13 13 16 23 19 20 19 26 25 20 13 11 13 14 14 14 13 11 10 10 11 12
2 3 3 5 4 6 7 6 7 8 8 9 11 11 12 12 12 11 11 14 18 16 17 14 20 24 24 23 21 20 15 15 14 13 14 10 9 10 8 11 11 10 11
4 5 6 6 6 7 7 7 8 9 6 10 11 11 13 13 13 14 14 13 13 17 19 16 15 12 13 12 13 14 13 9 12 10 13 9 12 11 11 7 8 11 11
6 5 5 7 8 8 8 9 7 13 12 13 15 13 12 13 16 18 17 15 17 19 14 16 15 12 13 13 13 13 9 14 10 12 10 8 8 10 8 11 10 7 11
7 7 7 7 8 8 9 10 11 9 14 17 17 18 17 17 17 18 17 18 21 16 13 14 14 13 12 11 12 12 11 10 12 8 10 11 9 8 7 11 9 9 9
8 8 9 8 8 9 9 11 11 12 13 13 9 8 8 11 15 15 17 16 14 11 11 13 14 13 12 11 10 11 11 9 10 11 9 10 11 9 10 12 12 12 9
8 8 8 9 9 8 11 11 11 12 13 13 14 14 14 14 16 17 17 10 11 11 11 10 12 13 12 10 9 9 10 10 10 11 12 10 11 12 13 11 13 13 8
7 3 7 9 9 10 10 11 12 12 13 12 12 13 12 13 13 14 12 11 10 11 10 11 11 11 12 10 10 9 9 10 12 12 14 15 12 12 11 12 13 14 11
7 8 4 9 9 10 11 11 13 11 10 11 11 12 17 12 13 12 11 11 10 11 11 11 10 11 10 11 10 10 11 10 9 10 9 8 11 11 12 14 13 14 12
8 7 8 9 9 10 10 11 11 10 11 11 11 12 17 10 10 11 11 11 11 11 10 10 10 10 9 10 10 10 10 10 9 9 9 10 9 12 12 10 14 14 13
6 8 9 8 8 10 10 9 9 9 10 11 12 11 11 11 11 11 12 12 11 11 10 10 11 11 9 10 10 10 10 10 7 7 7 8 4 5 6 9 10 13 13
7 8 8 8 9 8 8 9 9 10 10 10 11 11 11 11 12 14 13 12 12 12 11 10 10 14 11 12 10 10 10 9 7 8 9 6 6 6 6 9 9 14 12
8 8 7 8 7 7 7 8 9 11 12 11 11 11 13 13 13 14 14 13 13 13 13 12 10 14 16 19 16 18 16 9 8 6 4 6 8 12 9 8 10 12 11
7 6 6 6 5 5 6 9 11 11 12 11 11 12 13 14 14 14 14 15 14 14 16 13 14 18 19 16 16 18 15 12 10 8 7 7 10 8 7 11 13 10 11
Wind_Direction
103 69 110 7 166 159 262 267 228 193 193 161 167 23 24 326 273 245 272 286 255 289 289 275 279 293 288 296 287 268 275 275 263 282 288 264 250 257 271 274 252 262 253
143 157 155 260 300 313 278 293 327 50 50 330 226 8 18 324 271 250 252 294 263 273 282 289 286 290 297 279 269 249 236 228 250 263 271 290 304 287 261 264 271 258 269
94 102 90 32 13 328 302 212 219 219 250 101 167 132 53 267 256 247 261 265 259 267 278 279 284 293 291 297 299 295 287 272 241 251 278 270 263 278 288 251 235 252 254
88 82 39 47 53 56 39 251 149 134 159 173 160 142 203 231 248 250 241 251 258 266 268 275 280 284 285 288 287 286 274 269 268 260 263 274 262 262 263 278 270 227 242
42 32 18 9 77 66 47 34 36 51 65 117 173 118 215 233 246 244 239 252 272 272 273 272 270 295 312 277 281 284 290 280 267 265 266 258 261 255 236 261 272 289 276
173 21 57 55 48 52 47 60 73 51 36 32 10 240 245 256 71 39 343 294 282 273 273 276 279 275 264 241 238 245 260 271 271 277 278 273 275 272 275 270 260 265 274
136 138 88 66 53 34 32 34 33 46 48 28 355 323 300 294 63 2 320 286 282 280 277 276 277 280 291 292 282 247 238 235 240 259 265 270 279 277 280 281 267 258 260
110 95 56 48 37 23 25 25 20 9 5 348 330 314 301 289 359 305 298 282 278 278 278 278 280 286 284 285 285 282 280 276 262 245 243 251 251 258 266 264 265 277 274
98 76 61 53 41 28 21 10 3 351 342 331 321 308 302 297 315 303 307 305 293 289 283 283 291 288 287 296 288 281 281 279 274 243 256 261 254 264 273 279 272 247 251
68 49 45 43 38 32 20 9 354 341 334 326 327 315 307 301 300 273 301 296 295 291 290 284 284 279 308 350 300 297 295 285 287 284 268 238 242 246 228 237 249 250 252
71 55 40 28 27 21 12 6 354 348 337 335 329 327 309 312 314 319 298 307 311 316 305 296 292 291 108 322 309 290 285 314 299 282 273 261 259 239 232 212 222 241 253
76 69 55 39 9 19 355 349 338 332 315 325 327 319 329 328 314 331 347 303 303 300 293 287 285 4 318 303 295 290 291 293 276 268 263 258 254 249 245 245 218 222 243
93 71 29 353 348 339 332 325 306 319 326 328 330 326 324 328 321 335 308 294 299 303 296 296 300 300 296 281 258 257 263 263 266 271 261 264 267 274 273 273 261 260 252
204 247 266 278 317 287 305 307 311 316 320 325 326 321 323 321 316 319 329 328 312 301 312 318 310 292 277 267 269 262 253 248 248 254 263 284 277 259 240 240 235 234 245
297 302 296 288 291 306 288 315 307 300 317 305 306 315 312 317 316 322 295 295 301 304 313 294 289 289 287 283 281 283 290 278 253 238 260 258 271 268 266 268 246 273 247
294 276 308 311 300 307 307 305 252 239 253 233 247 259 296 298 285 282 283 282 281 285 292 292 286 279 275 276 276 277 271 278 268 271 240 227 247 256 271 260 256 235 273
286 295 296 288 304 305 302 302 304 300 225 236 242 243 238 265 276 277 277 278 279 285 281 283 287 287 280 272 273 270 270 270 284 259 278 253 217 249 239 264 264 241 256
287 255 268 281 296 303 303 313 305 303 310 310 282 264 302 301 288 276 272 281 287 273 275 285 288 289 287 284 274 269 269 273 275 277 266 267 252 221 228 246 252 254 244
291 301 318 306 301 310 294 297 305 310 307 309 330 316 334 314 287 280 272 272 273 277 278 274 283 286 283 274 266 259 260 276 286 285 269 249 262 250 243 246 245 241 246
302 281 267 295 309 305 313 318 313 311 324 334 319 311 311 311 308 305 298 288 277 274 273 272 273 271 273 268 265 262 264 270 265 260 258 255 232 251 250 244 250 254 236
311 315 312 289 319 323 316 323 322 345 336 318 310 304 300 302 298 296 298 296 290 283 275 268 269 267 266 268 266 265 260 253 267 271 279 285 271 264 269 248 243 248 256
304 319 322 324 324 323 340 330 345 330 316 307 300 299 297 293 291 291 291 289 286 283 281 275 269 265 264 265 263 264 262 260 262 261 260 258 262 268 256 258 247 245 243
322 331 325 330 331 356 344 327 330 316 305 302 301 303 304 300 297 294 291 288 284 280 275 269 268 266 259 260 254 251 252 256 257 270 275 292 282 304 312 308 267 260 245
342 335 337 332 9 335 335 335 314 297 297 298 303 303 302 300 297 295 294 291 287 280 274 267 263 266 267 259 255 254 251 250 257 247 264 264 283 288 285 292 290 256 255
341 346 332 346 351 339 334 302 301 314 318 315 308 306 303 303 300 299 295 293 291 288 282 271 259 257 256 261 251 254 261 250 238 253 268 273 272 274 265 269 281 278 281
347 339 329 345 351 323 313 318 318 321 321 316 310 310 307 304 302 298 298 295 291 286 285 279 268 257 255 260 256 250 247 245 240 216 241 253 254 250 255 264 270 274 278